Location: Newark
(51.3318°N, 0.0053°E)
Time: 07:09:57
(UTC+00:00)

CUBEBUG 2 - Pass Details

Date: 04 July 2022
Orbit: 584 x 692 km, 97.7° (Epoch: 12 August)

Event Time Altitude Azimuth Distance (km) Brightness Sun altitude
Rises 01:45:57 0° 29° (NNE) 2,842 ? -12.5°
Reaches altitude 10° 01:49:03 10° 55° (NE) 1,948 ? -12.3°
Maximum altitude 01:51:22 14° 88° (E) 1,689 ? -12.1°
Drops below altitude 10° 01:53:42 10° 122° (ESE) 1,968 ? -12.0°
Sets 01:56:51 0° 147° (SSE) 2,890 ? -11.8°
